KE2A-13 Weather Reports


Display with metric or nautical units.
time (UTC)temp
F
wind
direction
speed
MPH
gust
MPH
rain 1hr
in
rain 24hr
in
rain mn
in
humidity
%
barometer
mb
20260506091500 59 293 0.0 1.0 0.00 0.00 0.00 84 1009.4
20260506090000 59 304 1.0 2.0 0.00 0.00 0.00 83 1009.4
20260506084500 59 297 0.0 1.0 0.00 0.00 0.00 82 1009.5
20260506083000 60 319 1.0 2.0 0.00 0.00 0.00 80 1009.5
20260506081500 61 25 0.0 1.0 0.00 0.00 0.00 79 1009.6
20260506073000 66 5 2.0 3.0 0.00 0.00 0.00 70 1009.4
20260506071500 66 265 1.0 2.0 0.00 0.00 0.00 69 1009.6
20260506061500 67 218 2.0 3.0 0.00 0.00 0.00 68 1009.6
20260506044500 68 276 1.0 3.0 0.00 0.00 0.00 62 1010.1
20260506043000 68 273 0.0 2.0 0.00 0.00 0.00 63 1010.1
20260506041500 68 230 0.0 1.0 0.00 0.00 0.00 63 1010.1
20260506040000 68 216 1.0 2.0 0.00 0.00 0.06 61 1009.9
20260506034500 68 254 1.0 2.0 0.00 0.00 0.06 61 1010.0
20260506033000 68 275 0.0 2.0 0.00 0.00 0.06 61 1010.0
20260506031500 68 208 1.0 2.0 0.00 0.00 0.06 61 1009.8
20260506030000 68 250 1.0 3.0 0.00 0.00 0.06 62 1009.7
20260506024500 68 233 1.0 2.0 0.00 0.00 0.06 61 1009.6
20260506023000 68 292 0.0 1.0 0.00 0.00 0.06 61 1009.8
20260506021500 67 207 1.0 3.0 0.00 0.00 0.06 61 1009.7
20260506020000 67 222 0.0 1.0 0.00 0.00 0.06 62 1009.6
20260506014500 67 252 0.0 1.0 0.00 0.00 0.06 63 1009.6
20260506013000 69 298 0.0 2.0 0.00 0.00 0.06 60 1009.3
20260506011500 70 331 1.0 3.0 0.00 0.00 0.06 57 1009.0
20260506010000 72 116 0.0 2.0 0.00 0.00 0.06 52 1008.8
20260506004500 75 207 1.0 2.0 0.00 0.00 0.06 45 1008.5
20260506003000 75 217 1.0 2.0 0.00 0.00 0.06 42 1008.3
20260506001500 76 132 0.0 2.0 0.00 0.00 0.06 41 1008.2
20260506000000 77 153 1.0 4.0 0.00 0.00 0.06 38 1008.0
20260505234500 77 192 3.0 6.0 0.00 0.00 0.06 37 1007.8
20260505233000 78 190 3.0 5.0 0.00 0.00 0.06 35 1007.7
20260505231500 79 173 2.0 5.0 0.00 0.00 0.06 34 1007.5
20260505230000 80 131 3.0 6.0 0.00 0.00 0.06 34 1007.2
20260505224500 80 137 4.0 8.0 0.00 0.00 0.06 33 1006.9
20260505223000 80 141 3.0 6.0 0.00 0.00 0.06 33 1007.0
20260505221500 81 174 5.0 9.0 0.00 0.00 0.06 34 1006.9
20260505220000 81 133 4.0 7.0 0.00 0.00 0.06 34 1007.0
20260505214500 81 193 3.0 5.0 0.00 0.00 0.06 33 1006.9
20260505213000 81 272 2.0 4.0 0.00 0.00 0.06 35 1006.5
20260505211500 80 183 2.0 5.0 0.00 0.00 0.06 37 1006.5
20260505210000 78 183 4.0 9.0 0.00 0.00 0.06 37 1006.4
20260505204500 77 238 2.0 4.0 0.00 0.00 0.06 46 1006.7
20260505203000 78 184 2.0 3.0 0.00 0.00 0.06 47 1007.0
20260505201500 78 206 3.0 6.0 0.00 0.00 0.06 47 1007.0
20260505200000 79 243 2.0 4.0 0.00 0.00 0.06 44 1007.1
20260505194500 78 213 2.0 4.0 0.00 0.00 0.06 48 1007.2
20260505193000 79 174 3.0 5.0 0.00 0.00 0.06 49 1007.5
20260505191500 81 183 2.0 4.0 0.00 0.00 0.06 45 1007.4
20260505190000 80 253 1.0 2.0 0.00 0.00 0.06 44 1007.6
20260505184500 79 270 3.0 5.0 0.00 0.00 0.06 46 1007.9
20260505183000 79 236 2.0 3.0 0.00 0.00 0.06 47 1008.1
20260505181500 79 178 2.0 3.0 0.00 0.00 0.06 49 1008.3
20260505180000 80 224 2.0 4.0 0.00 0.00 0.06 47 1008.4
20260505174500 78 164 2.0 5.0 0.00 0.00 0.06 48 1008.4
20260505173000 78 231 2.0 4.0 0.00 0.00 0.06 48 1008.6
20260505171500 78 199 3.0 8.0 0.00 0.00 0.06 50 1008.7
20260505170000 79 216 3.0 4.0 0.00 0.00 0.06 49 1008.8
20260505164500 80 171 3.0 5.0 0.00 0.00 0.06 48 1009.0
20260505163000 80 160 2.0 4.0 0.00 0.00 0.06 49 1009.3
20260505161500 79 228 2.0 5.0 0.00 0.00 0.06 47 1009.4
20260505153000 76 176 1.0 3.0 0.00 0.00 0.06 51 1010.0
20260505151500 75 167 2.0 6.0 0.00 0.00 0.06 51 1010.1
20260505124500 61 103 2.0 3.0 0.05 0.00 0.05 82 1010.5
20260505123000 58 104 2.0 2.0 0.05 0.00 0.05 91 1010.7
20260505121500 56 16 1.0 1.0 0.06 0.00 0.06 93 1010.6
20260505120000 56 350 1.0 1.0 0.06 0.00 0.06 91 1010.1
20260505114500 57 355 3.0 4.0 0.00 0.00 0.05 85 1010.1
20260505113000 59 316 0.0 2.0 0.00 0.00 0.00 77 1011.2
20260505111500 58 262 0.0 1.0 0.00 0.00 0.00 78 1011.0
20260505101500 56 290 0.0 1.0 0.00 0.00 0.00 80 1010.5
20260505100000 56 203 0.0 1.0 0.00 0.00 0.00 78 1010.3
20260505094500 56 0.0 0.0 0.00 0.00 0.00 78 1010.0
20260505093000 58 187 1.0 3.0 0.00 0.00 0.00 74 1009.9